When you browse on this site, cookies collect data to enhance your experience and personalize the content and advertising you see.
Visit our Privacy Policy to learn more. By continuing to use the site, you agree to this use of cookies and data.
  • In United Kingdom
  • List of Countries
  • For 7 days
  • Water Temperature
  • Weather Map
  • Weather Widgets
  • user-avatar
    Login

    Hourly Weather Cape Coast

    Today, 31 May, Sunday

    Time Temperature Precipitation Wind Pressure Humidity
    00:00 +27°C° 0.5 mm 5 mps 760 mmHg 95%
    01:00 +26°C° 0 mm 4 mps 759 mmHg 95%
    02:00 +26°C° 0 mm 3 mps 759 mmHg 95%
    03:00 +26°C° 0 mm 2 mps 758 mmHg 95%
    04:00 +26°C° 0 mm 2 mps 758 mmHg 95%
    05:00 +26°C° 0 mm 2 mps 759 mmHg 96%
    06:00 +26°C° 0 mm 2 mps 759 mmHg 96%
    07:00 +27°C° 0 mm 1 mps 759 mmHg 90%
    08:00 +28°C° 0 mm 1 mps 759 mmHg 85%
    09:00 +30°C° 0 mm 1 mps 760 mmHg 79%
    10:00 +31°C° 0 mm 1 mps 759 mmHg 72%
    11:00 +33°C° 0 mm 1 mps 759 mmHg 65%
    12:00 +35°C° 0 mm 2 mps 759 mmHg 57%
    13:00 +34°C° 0 mm 2 mps 758 mmHg 60%
    14:00 +34°C° 0 mm 2 mps 758 mmHg 63%
    15:00 +32°C° 0 mm 2 mps 757 mmHg 66%
    16:00 +31°C° 0 mm 3 mps 757 mmHg 71%
    17:00 +30°C° 0 mm 3 mps 758 mmHg 76%
    18:00 +29°C° 0 mm 3 mps 758 mmHg 82%
    19:00 +28°C° 0 mm 3 mps 758 mmHg 84%
    20:00 +28°C° 0 mm 2 mps 759 mmHg 87%
    21:00 +27°C° 0 mm 2 mps 759 mmHg 89%
    22:00 +27°C° 0 mm 2 mps 759 mmHg 90%
    23:00 +27°C° 0 mm 1 mps 759 mmHg 90%

    Tomorrow, 1 June, Monday

    Time Temperature Precipitation Wind Pressure Humidity
    00:00 +27°C° 0 mm 1 mps 760 mmHg 91%
    01:00 +27°C° 0 mm 1 mps 759 mmHg 91%
    02:00 +27°C° 0 mm 1 mps 759 mmHg 92%
    03:00 +26°C° 0 mm 2 mps 758 mmHg 92%
    04:00 +26°C° 0.1 mm 2 mps 759 mmHg 93%
    05:00 +26°C° 0.1 mm 2 mps 759 mmHg 93%
    06:00 +26°C° 0.1 mm 2 mps 759 mmHg 94%
    07:00 +28°C° 0.2 mm 2 mps 759 mmHg 86%
    08:00 +30°C° 0.2 mm 1 mps 760 mmHg 78%
    09:00 +32°C° 0.2 mm 1 mps 760 mmHg 70%
    10:00 +32°C° 0.2 mm 2 mps 760 mmHg 69%
    11:00 +32°C° 0.2 mm 2 mps 759 mmHg 69%
    12:00 +34°C° 0.2 mm 3 mps 759 mmHg 68%
    13:00 +33°C° 0.4 mm 3 mps 759 mmHg 70%
    14:00 +33°C° 0.4 mm 4 mps 758 mmHg 71%
    15:00 +33°C° 0.4 mm 4 mps 758 mmHg 73%
    16:00 +32°C° 0 mm 4 mps 758 mmHg 76%
    17:00 +30°C° 0 mm 5 mps 758 mmHg 80%
    18:00 +29°C° 0 mm 5 mps 758 mmHg 83%
    19:00 +28°C° 0 mm 5 mps 758 mmHg 85%
    20:00 +28°C° 0 mm 5 mps 759 mmHg 87%
    21:00 +28°C° 0 mm 5 mps 759 mmHg 88%
    22:00 +28°C° 0 mm 5 mps 759 mmHg 90%
    23:00 +27°C° 0 mm 4 mps 759 mmHg 91%

    Day after tomorrow, 2 June, Tuesday

    Time Temperature Precipitation Wind Pressure Humidity
    00:00 +27°C° 0 mm 3 mps 759 mmHg 92%
    01:00 +27°C° 0 mm 3 mps 759 mmHg 93%
    02:00 +27°C° 0 mm 3 mps 759 mmHg 94%
    03:00 +27°C° 0 mm 3 mps 758 mmHg 95%
    04:00 +26°C° 0.1 mm 3 mps 759 mmHg 95%
    05:00 +26°C° 0.1 mm 3 mps 759 mmHg 95%
    06:00 +26°C° 0.1 mm 3 mps 759 mmHg 96%
    07:00 +28°C° 0 mm 3 mps 759 mmHg 88%
    08:00 +29°C° 0 mm 3 mps 760 mmHg 80%
    09:00 +31°C° 0 mm 3 mps 760 mmHg 73%
    10:00 +32°C° 0.1 mm 4 mps 760 mmHg 72%
    11:00 +33°C° 0.1 mm 4 mps 759 mmHg 72%
    12:00 +33°C° 0.1 mm 5 mps 759 mmHg 71%
    13:00 +33°C° 0.3 mm 5 mps 758 mmHg 73%
    14:00 +33°C° 0.3 mm 5 mps 758 mmHg 74%
    15:00 +33°C° 0.3 mm 6 mps 757 mmHg 76%
    16:00 +32°C° 0.2 mm 6 mps 758 mmHg 80%
    17:00 +30°C° 0.2 mm 6 mps 758 mmHg 83%
    18:00 +29°C° 0.2 mm 5 mps 758 mmHg 87%
    19:00 +28°C° 0.2 mm 5 mps 758 mmHg 88%
    20:00 +28°C° 0.2 mm 5 mps 759 mmHg 88%
    21:00 +28°C° 0.2 mm 5 mps 759 mmHg 89%
    22:00 +28°C° 0.1 mm 4 mps 759 mmHg 90%
    23:00 +27°C° 0.1 mm 4 mps 759 mmHg 91%

    3 June, Wednesday

    Time Temperature Precipitation Wind Pressure Humidity
    00:00 +27°C° 0.1 mm 3 mps 759 mmHg 91%
    01:00 +27°C° 0 mm 3 mps 759 mmHg 93%
    02:00 +27°C° 0 mm 3 mps 758 mmHg 94%
    03:00 +26°C° 0 mm 3 mps 757 mmHg 95%
    04:00 +26°C° 0 mm 2 mps 758 mmHg 94%
    05:00 +26°C° 0 mm 2 mps 758 mmHg 94%
    06:00 +26°C° 0 mm 2 mps 758 mmHg 94%
    07:00 +27°C° 0 mm 2 mps 759 mmHg 90%
    08:00 +28°C° 0 mm 2 mps 759 mmHg 87%
    09:00 +29°C° 0 mm 2 mps 759 mmHg 84%
    10:00 +30°C° 0 mm 3 mps 759 mmHg 79%
    11:00 +31°C° 0 mm 3 mps 759 mmHg 74%
    12:00 +33°C° 0 mm 4 mps 758 mmHg 69%
    13:00 +33°C° 0 mm 4 mps 758 mmHg 69%
    14:00 +33°C° 0 mm 5 mps 757 mmHg 69%
    15:00 +33°C° 0 mm 5 mps 757 mmHg 69%
    16:00 +32°C° 0 mm 5 mps 757 mmHg 73%
    17:00 +30°C° 0 mm 4 mps 757 mmHg 78%
    18:00 +29°C° 0 mm 4 mps 757 mmHg 83%
    19:00 +28°C° 0 mm 4 mps 758 mmHg 85%
    20:00 +28°C° 0 mm 4 mps 758 mmHg 87%
    21:00 +28°C° 0 mm 4 mps 759 mmHg 89%
    22:00 +27°C° 0.1 mm 4 mps 758 mmHg 91%
    23:00 +27°C° 0.1 mm 4 mps 758 mmHg 92%

    4 June, Thursday

    Time Temperature Precipitation Wind Pressure Humidity
    00:00 +27°C° 0.1 mm 4 mps 758 mmHg 94%
    01:00 +27°C° 0.1 mm 4 mps 757 mmHg 94%
    02:00 +27°C° 0.1 mm 4 mps 757 mmHg 95%
    03:00 +26°C° 0.1 mm 4 mps 757 mmHg 95%
    04:00 +27°C° 0.2 mm 3 mps 757 mmHg 94%
    05:00 +27°C° 0.2 mm 3 mps 757 mmHg 93%
    06:00 +27°C° 0.2 mm 3 mps 758 mmHg 92%
    07:00 +29°C° 0.1 mm 2 mps 758 mmHg 84%
    08:00 +30°C° 0.1 mm 2 mps 759 mmHg 76%
    09:00 +32°C° 0.1 mm 2 mps 759 mmHg 68%
    10:00 +33°C° 0.4 mm 3 mps 759 mmHg 69%
    11:00 +33°C° 0.4 mm 3 mps 759 mmHg 70%
    12:00 +33°C° 0.4 mm 4 mps 759 mmHg 71%
    13:00 +33°C° 0.1 mm 4 mps 758 mmHg 71%
    14:00 +33°C° 0.1 mm 5 mps 758 mmHg 70%
    15:00 +33°C° 0.1 mm 5 mps 757 mmHg 70%
    16:00 +32°C° 0 mm 5 mps 757 mmHg 74%
    17:00 +30°C° 0 mm 5 mps 758 mmHg 79%
    18:00 +29°C° 0 mm 5 mps 758 mmHg 84%
    19:00 +28°C° 0 mm 5 mps 759 mmHg 85%
    20:00 +28°C° 0 mm 5 mps 759 mmHg 87%
    21:00 +28°C° 0 mm 5 mps 760 mmHg 88%
    22:00 +28°C° 0.1 mm 5 mps 759 mmHg 89%
    23:00 +27°C° 0.1 mm 5 mps 759 mmHg 90%

    5 June, Friday

    Time Temperature Precipitation Wind Pressure Humidity
    00:00 +27°C° 0.1 mm 5 mps 758 mmHg 91%
    01:00 +27°C° 0 mm 5 mps 758 mmHg 92%
    02:00 +27°C° 0 mm 4 mps 757 mmHg 94%
    03:00 +26°C° 0 mm 3 mps 757 mmHg 95%
    04:00 +26°C° 0 mm 3 mps 758 mmHg 96%
    05:00 +26°C° 0 mm 2 mps 758 mmHg 97%
    06:00 +26°C° 0 mm 2 mps 759 mmHg 97%
    07:00 +28°C° 0.4 mm 2 mps 759 mmHg 88%
    08:00 +30°C° 0.4 mm 2 mps 760 mmHg 79%
    09:00 +31°C° 0.4 mm 2 mps 760 mmHg 70%
    10:00 +32°C° 0.2 mm 2 mps 760 mmHg 70%
    11:00 +32°C° 0.2 mm 2 mps 759 mmHg 70%
    12:00 +33°C° 0.2 mm 3 mps 759 mmHg 70%
    13:00 +31°C° 0.5 mm 3 mps 759 mmHg 74%
    14:00 +30°C° 0.5 mm 3 mps 758 mmHg 78%
    15:00 +29°C° 0.5 mm 4 mps 758 mmHg 82%
    16:00 +29°C° 0 mm 4 mps 758 mmHg 82%
    17:00 +29°C° 0 mm 3 mps 758 mmHg 83%
    18:00 +28°C° 0 mm 3 mps 758 mmHg 84%
    19:00 +28°C° 0 mm 3 mps 759 mmHg 85%
    20:00 +28°C° 0 mm 2 mps 759 mmHg 86%
    21:00 +27°C° 0 mm 2 mps 759 mmHg 87%
    22:00 +27°C° 0 mm 2 mps 759 mmHg 89%
    23:00 +27°C° 0 mm 2 mps 759 mmHg 90%
    Show more